| time (UTC) | temp F | wind direction | speed MPH | gust MPH | rain 1hr in | rain 24hr in | rain mn in | humidity % | barometer mb |
| 20260510005129 | 81 | 91 | 2.0 | 3.0 | 0.00 | 0.01 | 0.01 | 61 | 1007.7 |
| 20260510004627 | 82 | 138 | 2.0 | 3.0 | 0.00 | 0.01 | 0.01 | 60 | 1007.6 |
| 20260510004125 | 82 | 146 | 2.0 | 2.0 | 0.00 | 0.01 | 0.01 | 61 | 1007.6 |
| 20260510003622 | 0 | 0.0 | 0.0 | 0.00 | 0.00 | 0.00 | 1007.5 | ||
| 20260510003118 | 82 | 101 | 1.0 | 1.0 | 0.00 | 0.01 | 0.01 | 60 | 1007.5 |
| 20260510002617 | 82 | 101 | 1.0 | 1.0 | 0.00 | 0.01 | 0.01 | 60 | 1007.4 |
| 20260510002115 | 0 | 0.0 | 0.0 | 0.00 | 0.00 | 0.00 | 1007.5 | ||
| 20260510001612 | 84 | 151 | 3.0 | 3.0 | 0.00 | 0.01 | 0.01 | 60 | 1007.4 |
| 20260510001111 | 84 | 151 | 3.0 | 3.0 | 0.00 | 0.01 | 0.01 | 60 | 1007.2 |
| 20260510000611 | 84 | 149 | 2.0 | 3.0 | 0.00 | 0.01 | 0.01 | 60 | 1007.3 |
| 20260510000108 | 84 | 146 | 3.0 | 3.0 | 0.00 | 0.01 | 0.01 | 60 | 1007.3 |
| 20260509235604 | 84 | 106 | 1.0 | 1.0 | 0.00 | 0.01 | 0.01 | 62 | 1007.2 |
| 20260509235102 | 84 | 91 | 1.0 | 1.0 | 0.00 | 0.01 | 0.01 | 65 | 1007.2 |
| 20260509234558 | 84 | 123 | 1.0 | 2.0 | 0.00 | 0.01 | 0.01 | 64 | 1007.2 |
| 20260509234055 | 84 | 139 | 2.0 | 2.0 | 0.00 | 0.01 | 0.01 | 63 | 1006.9 |
| 20260509233553 | 84 | 108 | 1.0 | 2.0 | 0.00 | 0.01 | 0.01 | 63 | 1006.9 |
| 20260509233050 | 83 | 135 | 2.0 | 2.0 | 0.00 | 0.01 | 0.01 | 63 | 1007.2 |
| 20260509232546 | 83 | 154 | 3.0 | 6.0 | 0.00 | 0.01 | 0.01 | 65 | 1006.9 |
| 20260509232043 | 83 | 96 | 3.0 | 5.0 | 0.00 | 0.01 | 0.01 | 65 | 1007.2 |
| 20260509231539 | 83 | 139 | 3.0 | 3.0 | 0.00 | 0.01 | 0.01 | 64 | 1007.1 |
| 20260509231037 | 83 | 180 | 2.0 | 2.0 | 0.00 | 0.01 | 0.01 | 65 | 1007.2 |
| 20260509230533 | 82 | 173 | 2.0 | 2.0 | 0.00 | 0.01 | 0.01 | 67 | 1006.9 |
| 20260509230031 | 82 | 117 | 3.0 | 3.0 | 0.00 | 0.01 | 0.01 | 67 | 1006.9 |
| 20260509225526 | 82 | 161 | 3.0 | 5.0 | 0.00 | 0.01 | 0.01 | 65 | 1007.2 |
| 20260509225022 | 83 | 104 | 5.0 | 10.0 | 0.00 | 0.01 | 0.01 | 63 | 1007.1 |
| 20260509224518 | 83 | 103 | 2.0 | 3.0 | 0.00 | 0.01 | 0.01 | 65 | 1007.3 |
| 20260509224015 | 82 | 142 | 4.0 | 5.0 | 0.00 | 0.01 | 0.01 | 67 | 1006.9 |
| 20260509223512 | 81 | 49 | 3.0 | 3.0 | 0.00 | 0.01 | 0.01 | 69 | 1007.1 |
| 20260509223010 | 82 | 131 | 4.0 | 6.0 | 0.00 | 0.01 | 0.01 | 65 | 1007.2 |
| 20260509222505 | 83 | 122 | 4.0 | 6.0 | 0.00 | 0.01 | 0.01 | 62 | 1007.2 |
| 20260509222001 | 84 | 161 | 3.0 | 5.0 | 0.00 | 0.01 | 0.01 | 64 | 1007.3 |
| 20260509221457 | 87 | 16 | 1.0 | 2.0 | 0.00 | 0.01 | 0.01 | 61 | 1007.2 |
| 20260509220953 | 92 | 148 | 2.0 | 2.0 | 0.00 | 0.01 | 0.01 | 54 | 1007.1 |
| 20260509220449 | 95 | 59 | 1.0 | 1.0 | 0.00 | 0.01 | 0.01 | 51 | 1007.2 |
| 20260509215945 | 96 | 43 | 1.0 | 2.0 | 0.00 | 0.01 | 0.01 | 49 | 1006.9 |
| 20260509215441 | 94 | 109 | 2.0 | 2.0 | 0.00 | 0.01 | 0.01 | 51 | 1006.9 |
| 20260509214939 | 93 | 60 | 1.0 | 2.0 | 0.00 | 0.01 | 0.01 | 52 | 1007.1 |
| 20260509214436 | 95 | 146 | 3.0 | 3.0 | 0.00 | 0.01 | 0.01 | 49 | 1007.2 |
| 20260509213932 | 95 | 249 | 1.0 | 2.0 | 0.00 | 0.01 | 0.01 | 46 | 1007.1 |
| 20260509213428 | 94 | 164 | 2.0 | 2.0 | 0.00 | 0.01 | 0.01 | 49 | 1007.1 |
| 20260509212926 | 95 | 104 | 1.0 | 2.0 | 0.00 | 0.01 | 0.01 | 50 | 1006.9 |
| 20260509212423 | 93 | 66 | 0.0 | 1.0 | 0.00 | 0.01 | 0.01 | 50 | 1007.3 |
| 20260509211919 | 92 | 185 | 1.0 | 2.0 | 0.00 | 0.01 | 0.01 | 51 | 1007.3 |
| 20260509211415 | 91 | 212 | 3.0 | 3.0 | 0.00 | 0.01 | 0.01 | 54 | 1007.3 |
| 20260509210911 | 92 | 2 | 3.0 | 3.0 | 0.00 | 0.01 | 0.01 | 52 | 1007.4 |
| 20260509210409 | 93 | 247 | 2.0 | 2.0 | 0.00 | 0.01 | 0.01 | 51 | 1007.3 |
| 20260509205904 | 92 | 287 | 1.0 | 2.0 | 0.00 | 0.01 | 0.01 | 53 | 1007.3 |
| 20260509205403 | 91 | 213 | 0.0 | 1.0 | 0.00 | 0.01 | 0.01 | 54 | 1007.5 |
| 20260509204900 | 89 | 71 | 1.0 | 1.0 | 0.00 | 0.01 | 0.01 | 56 | 1007.5 |
| 20260509204356 | 90 | 312 | 2.0 | 3.0 | 0.00 | 0.01 | 0.01 | 54 | 1007.6 |
| 20260509203853 | 90 | 94 | 1.0 | 2.0 | 0.00 | 0.01 | 0.01 | 54 | 1008.0 |
| 20260509203349 | 90 | 194 | 2.0 | 3.0 | 0.00 | 0.01 | 0.01 | 55 | 1007.8 |
| 20260509202846 | 91 | 316 | 1.0 | 1.0 | 0.00 | 0.01 | 0.01 | 54 | 1007.7 |
| 20260509202342 | 90 | 95 | 1.0 | 2.0 | 0.00 | 0.01 | 0.01 | 54 | 1007.8 |
| 20260509201837 | 88 | 165 | 1.0 | 1.0 | 0.00 | 0.01 | 0.01 | 59 | 1008.1 |
| 20260509201333 | 89 | 173 | 4.0 | 6.0 | 0.00 | 0.01 | 0.01 | 57 | 1008.2 |
| 20260509200830 | 91 | 311 | 0.0 | 1.0 | 0.00 | 0.01 | 0.01 | 54 | 1008.0 |
| 20260509200325 | 92 | 71 | 1.0 | 1.0 | 0.00 | 0.01 | 0.01 | 55 | 1008.2 |
| 20260509195822 | 90 | 51 | 0.0 | 0.0 | 0.00 | 0.01 | 0.01 | 54 | 1008.3 |
| 20260509195322 | 91 | 337 | 1.0 | 1.0 | 0.00 | 0.01 | 0.01 | 55 | 1008.2 |
| 20260509194822 | 90 | 150 | 2.0 | 2.0 | 0.00 | 0.01 | 0.01 | 55 | 1008.3 |
| 20260509194319 | 89 | 125 | 1.0 | 2.0 | 0.00 | 0.01 | 0.01 | 58 | 1008.5 |
| 20260509193815 | 89 | 173 | 4.0 | 6.0 | 0.00 | 0.01 | 0.01 | 57 | 1008.4 |
| 20260509193315 | 90 | 78 | 2.0 | 2.0 | 0.00 | 0.01 | 0.01 | 58 | 1008.5 |
| 20260509192812 | 89 | 1 | 1.0 | 1.0 | 0.00 | 0.01 | 0.01 | 57 | 1008.6 |
| 20260509192308 | 90 | 208 | 2.0 | 2.0 | 0.00 | 0.01 | 0.01 | 55 | 1008.7 |
| 20260509191803 | 90 | 197 | 4.0 | 5.0 | 0.00 | 0.01 | 0.01 | 58 | 1009.1 |
| 20260509191259 | 91 | 314 | 2.0 | 2.0 | 0.00 | 0.01 | 0.01 | 56 | 1009.1 |
| 20260509190755 | 90 | 98 | 1.0 | 2.0 | 0.00 | 0.01 | 0.01 | 56 | 1009.3 |
| 20260509190253 | 89 | 213 | 1.0 | 1.0 | 0.00 | 0.01 | 0.01 | 58 | 1009.3 |
| 20260509185750 | 87 | 51 | 1.0 | 1.0 | 0.00 | 0.01 | 0.01 | 61 | 1009.2 |
| 20260509185246 | 90 | 350 | 1.0 | 1.0 | 0.00 | 0.01 | 0.01 | 59 | 1009.4 |
| 20260509184743 | 86 | 159 | 1.0 | 2.0 | 0.00 | 0.01 | 0.01 | 65 | 1009.1 |
| 20260509184241 | 85 | 317 | 3.0 | 3.0 | 0.00 | 0.01 | 0.01 | 65 | 1009.3 |
| 20260509183737 | 86 | 260 | 3.0 | 5.0 | 0.00 | 0.01 | 0.01 | 66 | 1009.2 |
| 20260509183232 | 88 | 152 | 3.0 | 3.0 | 0.00 | 0.01 | 0.01 | 63 | 1009.3 |
| 20260509182727 | 88 | 198 | 4.0 | 6.0 | 0.00 | 0.01 | 0.01 | 62 | 1009.3 |
| 20260509182226 | 88 | 233 | 2.0 | 3.0 | 0.00 | 0.01 | 0.01 | 61 | 1009.4 |
| 20260509181723 | 88 | 244 | 3.0 | 3.0 | 0.00 | 0.01 | 0.01 | 62 | 1009.3 |
| 20260509181220 | 88 | 352 | 1.0 | 2.0 | 0.00 | 0.01 | 0.01 | 62 | 1009.6 |
| 20260509180717 | 88 | 306 | 1.0 | 1.0 | 0.00 | 0.01 | 0.01 | 64 | 1009.5 |
| 20260509180213 | 87 | 115 | 3.0 | 3.0 | 0.00 | 0.01 | 0.01 | 64 | 1009.6 |
| 20260509175710 | 86 | 283 | 2.0 | 2.0 | 0.00 | 0.01 | 0.01 | 66 | 1009.8 |
| 20260509175206 | 85 | 234 | 4.0 | 6.0 | 0.00 | 0.01 | 0.01 | 68 | 1009.8 |
| 20260509174702 | 85 | 245 | 3.0 | 5.0 | 0.00 | 0.01 | 0.01 | 68 | 1009.8 |
| 20260509174157 | 86 | 296 | 3.0 | 5.0 | 0.00 | 0.01 | 0.01 | 68 | 1010.3 |
| 20260509173653 | 85 | 265 | 2.0 | 3.0 | 0.00 | 0.01 | 0.01 | 70 | 1010.1 |
| 20260509173149 | 85 | 229 | 1.0 | 2.0 | 0.00 | 0.01 | 0.01 | 70 | 1010.2 |
| 20260509172646 | 85 | 15 | 2.0 | 3.0 | 0.00 | 0.01 | 0.01 | 71 | 1010.2 |
| 20260509172142 | 85 | 15 | 2.0 | 3.0 | 0.00 | 0.01 | 0.01 | 71 | 1010.0 |
| 20260509171638 | 85 | 274 | 4.0 | 6.0 | 0.00 | 0.01 | 0.01 | 70 | 1010.3 |
| 20260509171134 | 85 | 274 | 4.0 | 6.0 | 0.00 | 0.01 | 0.01 | 70 | 1010.5 |
| 20260509170631 | 83 | 275 | 3.0 | 5.0 | 0.00 | 0.01 | 0.01 | 74 | 1010.0 |
| 20260509170127 | 83 | 275 | 3.0 | 5.0 | 0.00 | 0.01 | 0.01 | 74 | 1010.0 |
| 20260509165625 | 84 | 147 | 3.0 | 3.0 | 0.00 | 0.01 | 0.01 | 72 | 1010.3 |
| 20260509165121 | 84 | 239 | 3.0 | 3.0 | 0.00 | 0.01 | 0.01 | 74 | 1010.3 |
| 20260509164617 | 83 | 215 | 1.0 | 2.0 | 0.00 | 0.01 | 0.01 | 74 | 1010.1 |
| 20260509164113 | 82 | 247 | 1.0 | 1.0 | 0.00 | 0.01 | 0.01 | 75 | 1010.3 |
| 20260509163611 | 81 | 268 | 3.0 | 3.0 | 0.00 | 0.01 | 0.01 | 79 | 1010.2 |
| 20260509163106 | 81 | 268 | 3.0 | 3.0 | 0.00 | 0.01 | 0.01 | 79 | 1010.5 |
| 20260509162604 | 81 | 265 | 3.0 | 3.0 | 0.00 | 0.01 | 0.01 | 82 | 1010.5 |
| 20260509162059 | 78 | 111 | 1.0 | 2.0 | 0.00 | 0.01 | 0.01 | 92 | 1010.4 |
| 20260509161551 | 78 | 111 | 1.0 | 2.0 | 0.00 | 0.01 | 0.01 | 92 | 1010.4 |
| 20260509161051 | 75 | 107 | 1.0 | 1.0 | 0.00 | 0.01 | 0.01 | 96 | 1010.3 |
| 20260509160547 | 75 | 118 | 1.0 | 2.0 | 0.00 | 0.01 | 0.01 | 97 | 1010.6 |
| 20260509160042 | 75 | 291 | 2.0 | 2.0 | 0.00 | 0.01 | 0.01 | 97 | 1010.4 |
| 20260509155539 | 75 | 14 | 2.0 | 2.0 | 0.00 | 0.01 | 0.01 | 98 | 1010.5 |
| 20260509155035 | 75 | 119 | 2.0 | 3.0 | 0.00 | 0.01 | 0.01 | 98 | 1010.3 |
| 20260509154531 | 74 | 108 | 1.0 | 1.0 | 0.00 | 0.01 | 0.01 | 99 | 1010.5 |
| 20260509154029 | 74 | 136 | 3.0 | 5.0 | 0.00 | 0.01 | 0.01 | 99 | 1010.5 |
| 20260509153526 | 73 | 153 | 2.0 | 2.0 | 0.07 | 0.01 | 0.01 | 99 | 1010.6 |
| 20260509153023 | 73 | 165 | 4.0 | 5.0 | 0.07 | 0.01 | 0.01 | 99 | 1010.3 |
| 20260509152518 | 73 | 147 | 4.0 | 7.0 | 0.00 | 0.00 | 0.00 | 99 | 1010.1 |
| 20260509152015 | 72 | 178 | 4.0 | 5.0 | 0.00 | 0.00 | 0.00 | 99 | 1010.2 |
| 20260509151512 | 72 | 136 | 2.0 | 2.0 | 0.00 | 0.00 | 0.00 | 99 | 1010.7 |
| 20260509151010 | 72 | 307 | 1.0 | 2.0 | 0.00 | 0.00 | 0.00 | 99 | 1011.0 |
| 20260509150507 | 72 | 102 | 1.0 | 1.0 | 0.00 | 0.00 | 0.00 | 99 | 1010.7 |
| 20260509150006 | 72 | 130 | 2.0 | 2.0 | 0.00 | 0.00 | 0.00 | 99 | 1010.8 |
| 20260509145501 | 72 | 75 | 0.0 | 1.0 | 0.00 | 0.00 | 0.00 | 99 | 1011.1 |
| 20260509144956 | 71 | 78 | 0.0 | 1.0 | 0.00 | 0.00 | 0.00 | 99 | 1010.9 |
| 20260509144453 | 71 | 91 | 0.0 | 1.0 | 0.00 | 0.00 | 0.00 | 99 | 1010.8 |
| 20260509143950 | 71 | 94 | 1.0 | 1.0 | 0.00 | 0.00 | 0.00 | 99 | 1011.0 |
| 20260509143447 | 71 | 121 | 2.0 | 2.0 | 0.00 | 0.00 | 0.00 | 99 | 1011.0 |
| 20260509142944 | 71 | 71 | 0.0 | 0.0 | 0.00 | 0.00 | 0.00 | 99 | 1010.9 |
| 20260509142440 | 71 | 61 | 0.0 | 0.0 | 0.00 | 0.00 | 0.00 | 99 | 1011.0 |
| 20260509141936 | 71 | 61 | 0.0 | 0.0 | 0.00 | 0.00 | 0.00 | 99 | 1010.9 |
| 20260509141433 | 71 | 57 | 0.0 | 0.0 | 0.00 | 0.00 | 0.00 | 99 | 1010.6 |
| 20260509140930 | 71 | 51 | 0.0 | 0.0 | 0.00 | 0.00 | 0.00 | 99 | 1010.3 |
| 20260509140426 | 71 | 52 | 0.0 | 0.0 | 0.00 | 0.00 | 0.00 | 99 | 1010.2 |
| 20260509135924 | 71 | 58 | 0.0 | 0.0 | 0.00 | 0.00 | 0.00 | 99 | 1010.0 |
| 20260509135421 | 71 | 56 | 0.0 | 0.0 | 0.00 | 0.00 | 0.00 | 99 | 1009.7 |
| 20260509134919 | 71 | 56 | 0.0 | 0.0 | 0.00 | 0.00 | 0.00 | 99 | 1009.6 |
| 20260509134416 | 71 | 55 | 0.0 | 0.0 | 0.00 | 0.00 | 0.00 | 99 | 1009.8 |
| 20260509133913 | 71 | 59 | 0.0 | 0.0 | 0.00 | 0.00 | 0.00 | 99 | 1010.0 |
| 20260509133409 | 71 | 74 | 0.0 | 0.0 | 0.00 | 0.00 | 0.00 | 99 | 1010.3 |
| 20260509132908 | 71 | 94 | 0.0 | 1.0 | 0.00 | 0.00 | 0.00 | 99 | 1009.8 |
| 20260509132406 | 71 | 96 | 1.0 | 1.0 | 0.00 | 0.00 | 0.00 | 99 | 1010.2 |
| 20260509131903 | 71 | 50 | 0.0 | 0.0 | 0.00 | 0.00 | 0.00 | 99 | 1010.2 |
| 20260509131400 | 71 | 46 | 0.0 | 0.0 | 0.00 | 0.00 | 0.00 | 99 | 1010.2 |
| 20260509130856 | 71 | 47 | 0.0 | 0.0 | 0.00 | 0.00 | 0.00 | 99 | 1010.1 |
| 20260509130351 | 71 | 45 | 0.0 | 0.0 | 0.00 | 0.00 | 0.00 | 99 | 1010.3 |
| 20260509125849 | 71 | 47 | 0.0 | 0.0 | 0.00 | 0.00 | 0.00 | 99 | 1009.8 |
| 20260509125345 | 71 | 126 | 1.0 | 2.0 | 0.00 | 0.00 | 0.00 | 99 | 1009.8 |
| 20260509124841 | 71 | 87 | 0.0 | 0.0 | 0.00 | 0.00 | 0.00 | 99 | 1009.8 |
| 20260509124338 | 71 | 112 | 1.0 | 1.0 | 0.00 | 0.00 | 0.00 | 99 | 1009.6 |
| 20260509123836 | 71 | 73 | 0.0 | 0.0 | 0.00 | 0.00 | 0.00 | 99 | 1009.6 |
| 20260509123333 | 71 | 52 | 0.0 | 0.0 | 0.00 | 0.00 | 0.00 | 99 | 1010.0 |
| 20260509122828 | 71 | 65 | 0.0 | 0.0 | 0.00 | 0.00 | 0.00 | 99 | 1010.0 |
| 20260509122326 | 71 | 28 | 0.0 | 1.0 | 0.00 | 0.00 | 0.00 | 99 | 1009.8 |
| 20260509121823 | 71 | 60 | 0.0 | 1.0 | 0.00 | 0.00 | 0.00 | 99 | 1010.0 |
| 20260509121320 | 71 | 55 | 0.0 | 0.0 | 0.00 | 0.00 | 0.00 | 99 | 1010.0 |
| 20260509120818 | 71 | 53 | 0.0 | 0.0 | 0.00 | 0.00 | 0.00 | 99 | 1010.2 |
| 20260509120316 | 71 | 49 | 0.0 | 0.0 | 0.00 | 0.00 | 0.00 | 99 | 1010.1 |
| 20260509115814 | 71 | 49 | 0.0 | 0.0 | 0.00 | 0.00 | 0.00 | 99 | 1010.4 |
| 20260509115310 | 71 | 56 | 0.0 | 0.0 | 0.00 | 0.00 | 0.00 | 99 | 1010.4 |
| 20260509114809 | 71 | 58 | 0.0 | 0.0 | 0.00 | 0.00 | 0.00 | 99 | 1010.4 |
| 20260509114307 | 71 | 64 | 0.0 | 0.0 | 0.00 | 0.00 | 0.00 | 99 | 1010.4 |
| 20260509113806 | 71 | 65 | 0.0 | 0.0 | 0.00 | 0.00 | 0.00 | 99 | 1010.1 |
| 20260509113302 | 71 | 96 | 0.0 | 0.0 | 0.00 | 0.00 | 0.00 | 99 | 1010.1 |
| 20260509112759 | 71 | 106 | 1.0 | 2.0 | 0.00 | 0.00 | 0.00 | 99 | 1010.2 |
| 20260509112256 | 71 | 51 | 0.0 | 0.0 | 0.00 | 0.00 | 0.00 | 99 | 1010.3 |
| 20260509111753 | 71 | 72 | 1.0 | 1.0 | 0.00 | 0.00 | 0.00 | 99 | 1010.0 |
| 20260509111250 | 71 | 57 | 0.0 | 0.0 | 0.00 | 0.00 | 0.00 | 99 | 1010.1 |
| 20260509110747 | 71 | 51 | 0.0 | 0.0 | 0.00 | 0.00 | 0.00 | 99 | 1009.6 |
| 20260509110244 | 71 | 53 | 0.0 | 0.0 | 0.00 | 0.00 | 0.00 | 99 | 1009.7 |
| 20260509105742 | 71 | 44 | 0.0 | 0.0 | 0.00 | 0.00 | 0.00 | 99 | 1009.2 |
| 20260509105239 | 71 | 53 | 0.0 | 0.0 | 0.00 | 0.00 | 0.00 | 99 | 1009.6 |
| 20260509104736 | 71 | 43 | 0.0 | 0.0 | 0.00 | 0.00 | 0.00 | 99 | 1009.7 |
| 20260509104233 | 71 | 68 | 0.0 | 0.0 | 0.00 | 0.00 | 0.00 | 99 | 1009.5 |
| 20260509103731 | 71 | 61 | 0.0 | 0.0 | 0.00 | 0.00 | 0.00 | 99 | 1009.6 |
| 20260509103228 | 71 | 53 | 0.0 | 0.0 | 0.00 | 0.00 | 0.00 | 99 | 1009.7 |
| 20260509102726 | 71 | 45 | 0.0 | 0.0 | 0.00 | 0.00 | 0.00 | 99 | 1009.7 |
| 20260509102223 | 71 | 44 | 0.0 | 0.0 | 0.00 | 0.00 | 0.00 | 99 | 1010.0 |
| 20260509101719 | 71 | 47 | 0.0 | 0.0 | 0.00 | 0.00 | 0.00 | 99 | 1010.0 |
| 20260509101216 | 71 | 56 | 0.0 | 0.0 | 0.00 | 0.00 | 0.00 | 99 | 1009.6 |
| 20260509100713 | 71 | 58 | 0.0 | 0.0 | 0.00 | 0.00 | 0.00 | 99 | 1009.6 |
| 20260509100210 | 71 | 58 | 0.0 | 0.0 | 0.00 | 0.00 | 0.00 | 99 | 1009.2 |
| 20260509095707 | 71 | 53 | 0.0 | 0.0 | 0.00 | 0.00 | 0.00 | 99 | 1009.3 |
| 20260509095204 | 71 | 71 | 0.0 | 0.0 | 0.00 | 0.00 | 0.00 | 99 | 1009.3 |
| 20260509094701 | 71 | 72 | 0.0 | 0.0 | 0.00 | 0.00 | 0.00 | 99 | 1009.4 |
| 20260509094158 | 71 | 57 | 0.0 | 0.0 | 0.00 | 0.00 | 0.00 | 99 | 1009.2 |
| 20260509093656 | 71 | 52 | 0.0 | 0.0 | 0.00 | 0.00 | 0.00 | 99 | 1009.1 |
| 20260509093153 | 71 | 57 | 0.0 | 0.0 | 0.00 | 0.00 | 0.00 | 99 | 1009.0 |
| 20260509092651 | 71 | 67 | 0.0 | 0.0 | 0.00 | 0.00 | 0.00 | 99 | 1009.1 |
| 20260509092149 | 71 | 73 | 0.0 | 0.0 | 0.00 | 0.00 | 0.00 | 99 | 1009.0 |
| 20260509091647 | 71 | 73 | 0.0 | 0.0 | 0.00 | 0.00 | 0.00 | 99 | 1008.9 |
| 20260509091143 | 71 | 74 | 0.0 | 0.0 | 0.00 | 0.00 | 0.00 | 99 | 1009.2 |
| 20260509090641 | 71 | 74 | 0.0 | 0.0 | 0.00 | 0.00 | 0.00 | 99 | 1009.0 |
| 20260509090138 | 71 | 85 | 0.0 | 0.0 | 0.00 | 0.00 | 0.00 | 99 | 1008.7 |
| 20260509085635 | 71 | 80 | 0.0 | 0.0 | 0.00 | 0.00 | 0.00 | 99 | 1008.6 |
| 20260509085131 | 71 | 83 | 0.0 | 0.0 | 0.00 | 0.00 | 0.00 | 99 | 1008.6 |
| 20260509084628 | 71 | 117 | 1.0 | 1.0 | 0.00 | 0.00 | 0.00 | 98 | 1008.7 |
| 20260509084125 | 71 | 87 | 0.0 | 0.0 | 0.00 | 0.00 | 0.00 | 98 | 1008.7 |
| 20260509083623 | 71 | 209 | 0.0 | 1.0 | 0.00 | 0.00 | 0.00 | 98 | 1008.9 |
| 20260509083119 | 71 | 92 | 1.0 | 1.0 | 0.00 | 0.00 | 0.00 | 98 | 1008.8 |
| 20260509082617 | 71 | 131 | 0.0 | 1.0 | 0.00 | 0.00 | 0.00 | 98 | 1009.0 |
| 20260509082113 | 71 | 93 | 0.0 | 1.0 | 0.00 | 0.00 | 0.00 | 98 | 1009.0 |
| 20260509081610 | 71 | 80 | 0.0 | 1.0 | 0.00 | 0.00 | 0.00 | 98 | 1008.8 |
| 20260509081107 | 71 | 109 | 3.0 | 3.0 | 0.00 | 0.00 | 0.00 | 98 | 1009.2 |
| 20260509080606 | 71 | 130 | 1.0 | 2.0 | 0.00 | 0.00 | 0.00 | 98 | 1008.8 |
| 20260509075601 | 71 | 105 | 0.0 | 1.0 | 0.00 | 0.00 | 0.00 | 98 | 1008.8 |
| 20260509075059 | 71 | 125 | 3.0 | 5.0 | 0.00 | 0.00 | 0.00 | 98 | 1008.8 |
| 20260509074555 | 71 | 125 | 1.0 | 2.0 | 0.00 | 0.00 | 0.00 | 98 | 1008.7 |
| 20260509074051 | 71 | 99 | 1.0 | 1.0 | 0.00 | 0.00 | 0.00 | 98 | 1009.1 |
| 20260509073548 | 71 | 83 | 1.0 | 1.0 | 0.00 | 0.00 | 0.00 | 98 | 1008.8 |
| 20260509073045 | 71 | 247 | 2.0 | 2.0 | 0.00 | 0.00 | 0.00 | 98 | 1008.7 |
| 20260509072541 | 71 | 147 | 3.0 | 3.0 | 0.00 | 0.00 | 0.00 | 98 | 1008.6 |
| 20260509072038 | 71 | 104 | 2.0 | 2.0 | 0.00 | 0.00 | 0.00 | 98 | 1008.8 |
| 20260509071535 | 71 | 89 | 1.0 | 1.0 | 0.00 | 0.00 | 0.00 | 98 | 1008.8 |
| 20260509071033 | 71 | 87 | 0.0 | 1.0 | 0.00 | 0.00 | 0.00 | 98 | 1008.8 |
| 20260509070529 | 71 | 87 | 1.0 | 1.0 | 0.00 | 0.00 | 0.00 | 97 | 1009.0 |
| 20260509070025 | 71 | 100 | 0.0 | 0.0 | 0.00 | 0.00 | 0.00 | 97 | 1009.1 |
| 20260509065521 | 71 | 92 | 1.0 | 2.0 | 0.00 | 0.00 | 0.00 | 97 | 1009.0 |
| 20260509065017 | 71 | 150 | 2.0 | 2.0 | 0.00 | 0.00 | 0.00 | 97 | 1009.2 |
| 20260509064515 | 71 | 129 | 2.0 | 2.0 | 0.00 | 0.00 | 0.00 | 97 | 1009.1 |
| 20260509064013 | 71 | 85 | 2.0 | 3.0 | 0.00 | 0.00 | 0.00 | 97 | 1009.2 |
| 20260509063508 | 71 | 131 | 2.0 | 3.0 | 0.00 | 0.00 | 0.00 | 97 | 1008.8 |
| 20260509063006 | 71 | 98 | 1.0 | 1.0 | 0.00 | 0.00 | 0.00 | 97 | 1008.9 |
| 20260509062503 | 71 | 149 | 3.0 | 3.0 | 0.00 | 0.00 | 0.00 | 97 | 1009.1 |
| 20260509062001 | 71 | 146 | 2.0 | 2.0 | 0.00 | 0.00 | 0.00 | 97 | 1009.2 |
| 20260509061457 | 71 | 209 | 2.0 | 2.0 | 0.00 | 0.00 | 0.00 | 97 | 1009.1 |
| 20260509060954 | 71 | 88 | 1.0 | 2.0 | 0.00 | 0.00 | 0.00 | 97 | 1009.1 |
| 20260509060452 | 71 | 130 | 2.0 | 2.0 | 0.00 | 0.00 | 0.00 | 97 | 1008.9 |
| 20260509055947 | 71 | 124 | 2.0 | 2.0 | 0.00 | 0.00 | 0.00 | 97 | 1009.2 |
| 20260509055443 | 71 | 119 | 2.0 | 2.0 | 0.00 | 0.00 | 0.00 | 97 | 1009.3 |
| 20260509054939 | 71 | 109 | 2.0 | 2.0 | 0.00 | 0.00 | 0.00 | 97 | 1009.3 |
| 20260509054436 | 71 | 141 | 2.0 | 2.0 | 0.00 | 0.00 | 0.00 | 97 | 1009.3 |
| 20260509053934 | 71 | 122 | 2.0 | 2.0 | 0.00 | 0.00 | 0.00 | 97 | 1009.7 |
| 20260509053432 | 71 | 57 | 2.0 | 3.0 | 0.00 | 0.00 | 0.00 | 97 | 1009.8 |
| 20260509052929 | 71 | 96 | 2.0 | 2.0 | 0.00 | 0.00 | 0.00 | 97 | 1009.6 |
| 20260509052427 | 71 | 72 | 1.0 | 1.0 | 0.00 | 0.00 | 0.00 | 97 | 1009.8 |
| 20260509051925 | 71 | 121 | 2.0 | 2.0 | 0.00 | 0.00 | 0.00 | 97 | 1009.5 |
| 20260509051422 | 71 | 142 | 2.0 | 2.0 | 0.00 | 0.00 | 0.00 | 97 | 1009.8 |
| 20260509050919 | 71 | 102 | 1.0 | 2.0 | 0.00 | 0.00 | 0.00 | 97 | 1009.6 |
| 20260509050415 | 71 | 123 | 2.0 | 2.0 | 0.00 | 0.00 | 0.00 | 97 | 1009.6 |
| 20260509045912 | 71 | 85 | 1.0 | 1.0 | 0.00 | 0.00 | 0.00 | 97 | 1009.6 |
| 20260509045409 | 71 | 102 | 1.0 | 1.0 | 0.00 | 0.00 | 0.00 | 97 | 1009.6 |
| 20260509044906 | 71 | 107 | 1.0 | 2.0 | 0.00 | 0.00 | 0.00 | 97 | 1009.7 |
| 20260509044404 | 71 | 91 | 0.0 | 0.0 | 0.00 | 0.00 | 0.00 | 97 | 1009.3 |
| 20260509043901 | 71 | 131 | 2.0 | 2.0 | 0.00 | 0.00 | 0.00 | 97 | 1009.1 |
| 20260509043356 | 71 | 88 | 0.0 | 1.0 | 0.00 | 0.00 | 0.00 | 97 | 1009.4 |
| 20260509042852 | 71 | 98 | 1.0 | 2.0 | 0.00 | 0.00 | 0.00 | 97 | 1009.1 |
| 20260509042349 | 71 | 112 | 1.0 | 2.0 | 0.00 | 0.00 | 0.00 | 97 | 1009.2 |
| 20260509041846 | 71 | 85 | 1.0 | 2.0 | 0.00 | 0.00 | 0.00 | 97 | 1009.2 |
| 20260509041343 | 71 | 151 | 1.0 | 2.0 | 0.00 | 0.00 | 0.00 | 97 | 1009.1 |
| 20260509040841 | 71 | 130 | 2.0 | 2.0 | 0.00 | 0.00 | 0.00 | 96 | 1008.8 |
| 20260509040338 | 71 | 104 | 1.0 | 1.0 | 0.00 | 0.00 | 0.00 | 96 | 1008.9 |
| 20260509035835 | 71 | 76 | 0.0 | 0.0 | 0.00 | 0.00 | 0.00 | 96 | 1008.8 |
| 20260509035332 | 71 | 102 | 2.0 | 2.0 | 0.00 | 0.00 | 0.00 | 96 | 1009.0 |
| 20260509034828 | 71 | 96 | 1.0 | 2.0 | 0.00 | 0.00 | 0.00 | 96 | 1008.8 |
| 20260509034327 | 71 | 112 | 2.0 | 2.0 | 0.00 | 0.00 | 0.00 | 96 | 1009.0 |
| 20260509033823 | 71 | 108 | 2.0 | 3.0 | 0.00 | 0.00 | 0.00 | 96 | 1009.3 |
| 20260509033320 | 71 | 73 | 1.0 | 2.0 | 0.00 | 0.00 | 0.00 | 96 | 1008.9 |
| 20260509032817 | 71 | 114 | 1.0 | 1.0 | 0.00 | 0.00 | 0.00 | 96 | 1008.8 |
| 20260509032314 | 72 | 95 | 1.0 | 1.0 | 0.00 | 0.00 | 0.00 | 95 | 1009.0 |
| 20260509031812 | 72 | 100 | 2.0 | 2.0 | 0.00 | 0.00 | 0.00 | 95 | 1008.8 |
| 20260509031309 | 72 | 97 | 1.0 | 1.0 | 0.00 | 0.00 | 0.00 | 95 | 1008.9 |
| 20260509030807 | 72 | 68 | 0.0 | 0.0 | 0.00 | 0.00 | 0.00 | 95 | 1008.9 |
| 20260509030304 | 72 | 78 | 1.0 | 1.0 | 0.00 | 0.00 | 0.00 | 95 | 1009.1 |
| 20260509025801 | 72 | 75 | 0.0 | 1.0 | 0.00 | 0.00 | 0.00 | 95 | 1008.9 |
| 20260509025256 | 72 | 81 | 0.0 | 1.0 | 0.00 | 0.00 | 0.00 | 95 | 1009.0 |
| 20260509024752 | 72 | 84 | 1.0 | 1.0 | 0.00 | 0.00 | 0.00 | 95 | 1008.9 |
| 20260509024248 | 72 | 94 | 1.0 | 1.0 | 0.00 | 0.00 | 0.00 | 95 | 1008.9 |
| 20260509023746 | 72 | 64 | 0.0 | 0.0 | 0.00 | 0.00 | 0.00 | 94 | 1008.8 |
| 20260509023243 | 72 | 78 | 0.0 | 0.0 | 0.00 | 0.00 | 0.00 | 94 | 1008.8 |
| 20260509022739 | 72 | 66 | 0.0 | 0.0 | 0.00 | 0.00 | 0.00 | 94 | 1008.5 |
| 20260509022237 | 72 | 102 | 1.0 | 2.0 | 0.00 | 0.00 | 0.00 | 94 | 1008.4 |
| 20260509021733 | 72 | 123 | 2.0 | 2.0 | 0.00 | 0.00 | 0.00 | 94 | 1008.2 |
| 20260509021231 | 73 | 89 | 0.0 | 1.0 | 0.00 | 0.00 | 0.00 | 94 | 1008.4 |
| 20260509020728 | 73 | 70 | 0.0 | 0.0 | 0.00 | 0.00 | 0.00 | 94 | 1008.2 |
| 20260509020225 | 73 | 94 | 1.0 | 1.0 | 0.00 | 0.00 | 0.00 | 94 | 1008.1 |
| 20260509015723 | 73 | 100 | 1.0 | 2.0 | 0.00 | 0.00 | 0.00 | 94 | 1008.3 |
| 20260509015222 | 73 | 69 | 0.0 | 0.0 | 0.00 | 0.00 | 0.00 | 93 | 1008.0 |
| 20260509014718 | 73 | 115 | 1.0 | 1.0 | 0.00 | 0.00 | 0.00 | 93 | 1007.9 |
| 20260509014215 | 73 | 121 | 1.0 | 1.0 | 0.00 | 0.00 | 0.00 | 93 | 1007.9 |
| 20260509013711 | 73 | 108 | 2.0 | 2.0 | 0.00 | 0.00 | 0.00 | 93 | 1007.8 |
| 20260509013207 | 73 | 77 | 0.0 | 1.0 | 0.00 | 0.00 | 0.00 | 92 | 1007.9 |
| 20260509012704 | 73 | 76 | 0.0 | 1.0 | 0.00 | 0.00 | 0.00 | 92 | 1007.7 |
| 20260509012200 | 73 | 85 | 1.0 | 1.0 | 0.00 | 0.00 | 0.00 | 92 | 1007.8 |
| 20260509011658 | 73 | 84 | 1.0 | 1.0 | 0.00 | 0.00 | 0.00 | 91 | 1008.1 |
| 20260509011155 | 73 | 82 | 0.0 | 1.0 | 0.00 | 0.00 | 0.00 | 91 | 1008.0 |
| 20260509010653 | 73 | 80 | 2.0 | 2.0 | 0.00 | 0.00 | 0.00 | 91 | 1007.8 |
| 20260509010149 | 74 | 73 | 2.0 | 2.0 | 0.00 | 0.00 | 0.00 | 90 | 1007.8 |
| 20260509005647 | 74 | 86 | 1.0 | 1.0 | 0.00 | 0.00 | 0.00 | 90 | 1007.8 |